Temperature
27 27 28 27 28 27 27 27 27 28 28 28 27 27 26 25 25 24 24 24 23 22 22 21 20 20 20 19 19 19 19 18 18 18 18 17 17 17 16 16 15 15 15 15
26 26 26 27 27 27 27 27 27 27 27 27 26 25 24 24 24 24 23 23 23 22 22 21 20 20 20 19 19 19 19 19 18 18 18 17 17 17 16 16 16 15 15 15
25 26 25 26 27 27 27 27 27 27 27 26 25 24 23 23 23 23 22 22 22 21 21 20 20 20 20 20 20 20 19 19 18 18 18 17 17 16 16 16 16 16 15 15
25 25 24 26 27 27 27 27 27 26 26 25 24 22 21 21 21 21 21 21 21 21 20 20 20 19 19 19 19 19 19 18 18 18 18 17 17 17 17 16 16 16 15 15
24 24 25 26 26 26 26 25 25 25 25 24 23 23 22 20 19 20 20 20 20 20 20 20 20 19 19 18 18 18 18 18 17 17 17 17 17 16 16 16 16 15 15 15
23 23 24 25 25 24 25 24 24 24 24 23 23 24 22 19 18 18 19 19 19 19 19 19 19 19 18 18 17 18 18 17 17 17 17 16 16 16 16 15 15 15 15 15
23 23 25 24 24 24 24 23 22 22 22 22 21 21 19 18 17 17 17 17 18 18 18 18 18 18 17 17 17 17 17 17 16 17 16 16 16 15 15 15 15 15 14 14
23 23 23 23 24 23 22 21 21 21 20 20 19 18 17 17 16 16 16 16 17 17 17 17 17 17 17 16 16 16 16 16 16 16 15 15 15 15 15 14 14 14 14 14
22 22 21 21 21 20 20 20 20 20 19 18 18 17 17 16 16 16 16 16 16 16 16 16 15 16 16 15 15 15 15 15 15 15 15 14 14 14 14 13 13 13 13 13
22 22 21 20 20 19 19 19 18 18 18 18 17 16 16 15 15 15 15 15 15 15 15 15 15 15 15 15 14 14 14 14 14 14 14 13 13 13 13 13 13 13 13 13
21 21 20 19 19 18 18 18 17 17 17 17 16 16 15 15 14 14 15 15 15 14 14 14 14 14 14 14 14 13 13 13 13 13 13 13 13 12 12 12 12 12 12 12
20 19 19 18 17 17 17 17 16 16 16 16 15 15 14 14 14 14 14 14 14 13 13 13 13 13 13 13 13 13 13 13 13 13 12 12 12 12 12 12 12 11 11 11
17 17 17 16 16 16 16 16 16 15 15 15 15 14 14 14 13 13 13 13 13 13 13 12 12 12 12 12 12 12 12 12 12 12 12 12 12 12 11 11 11 11 11 11
15 15 15 16 16 15 15 15 15 15 14 14 14 14 14 13 13 13 13 12 12 12 12 12 12 12 11 11 11 11 11 11 11 11 11 11 11 11 11 11 11 11 11 10
14 15 15 15 15 15 15 14 14 14 14 14 13 13 13 13 13 12 12 12 12 12 12 12 11 11 11 11 11 10 11 11 11 11 11 11 11 11 11 11 11 11 11 10
14 14 14 14 14 14 14 14 14 13 13 13 13 13 13 12 12 12 12 12 12 12 11 11 11 11 10 10 10 10 10 10 10 10 11 11 11 11 11 10 10 10 10 10
14 14 14 14 14 14 14 13 13 13 13 13 12 12 12 12 12 12 11 11 11 11 11 11 10 10 10 10 10 11 11 11 10 10 10 10 10 10 10 10 10 9 9 9
13 13 13 13 13 13 13 13 13 13 12 12 12 12 12 12 12 11 11 11 11 11 11 10 10 10 10 10 10 10 10 11 10 10 10 10 10 10 10 9 9 9 9 9
13 13 13 12 12 12 12 12 12 12 12 12 12 12 11 11 11 11 11 11 11 11 11 10 10 10 10 10 10 9 10 10 10 10 10 10 9 9 9 9 9 8 8 8
12 12 12 12 12 12 12 12 12 11 11 11 11 11 11 11 11 11 10 11 11 11 10 10 10 10 9 9 9 10 10 10 10 10 9 9 9 9 8 8 8 7 7 7
12 12 12 12 12 11 11 11 11 11 11 11 11 11 10 10 10 10 10 11 10 10 9 9 9 9 9 9 9 9 9 9 9 9 9 9 8 8 7 7 7 6 6 6
11 11 11 11 11 11 11 11 11 10 10 10 10 10 10 10 10 10 10 10 9 9 9 9 9 9 9 8 8 9 9 8 8 8 8 8 7 7 6 6 6 6 5 5
10 10 10 10 10 10 10 10 10 10 10 10 9 9 9 9 9 10 10 9 9 9 8 8 8 8 8 7 8 8 8 7 7 7 7 7 6 6 6 5 5 5 5 5
9 9 9 9 9 10 10 10 9 9 9 9 9 9 9 9 9 9 9 8 8 8 7 7 7 7 7 7 7 7 7 6 6 6 6 6 5 5 5 4 4 4 4 4
8 8 9 9 9 9 9 9 9 9 9 9 9 9 8 8 8 8 7 7 7 7 7 7 6 6 6 6 6 6 6 5 5 5 5 4 4 4 4 4 4 4 4 4
8 8 8 8 8 8 8 8 8 8 8 8 8 8 8 7 7 7 7 6 6 6 6 6 6 5 5 5 5 5 5 4 4 4 4 3 3 3 3 3 3 3 3 3
8 8 8 8 8 8 7 7 7 7 7 7 7 7 7 6 6 6 6 6 5 5 5 5 5 5 4 4 4 4 3 3 3 3 3 3 3 3 3 2 3 3 3 3
Wind_Speed
11 8 8 10 11 12 14 13 12 10 9 6 4 3 3 5 8 11 13 15 16 16 16 16 15 15 15 15 15 15 15 14 14 13 12 11 11 11 10 10 10 10 10 10
10 8 9 11 11 12 13 12 13 12 10 4 3 1 1 4 6 9 11 13 14 14 14 14 14 14 14 14 14 14 14 14 13 13 12 12 11 11 10 10 10 9 10 10
9 7 9 12 11 10 10 10 10 11 6 2 2 2 1 1 3 6 8 9 11 12 12 12 12 12 13 13 13 14 14 13 13 13 13 12 12 12 11 11 10 11 11 11
7 6 11 4 1 5 7 7 5 5 4 2 2 2 2 1 1 3 4 6 7 8 9 10 10 11 11 12 13 14 14 14 13 13 12 12 12 12 12 11 11 11 11 12
7 9 8 4 2 3 5 4 2 3 2 1 1 3 4 5 2 1 1 3 4 6 7 8 9 9 10 10 11 12 12 12 12 11 11 11 12 12 11 10 11 11 11 12
7 7 7 1 2 1 4 5 1 0 1 1 2 3 3 6 5 4 3 2 2 3 5 6 7 8 9 9 9 9 10 10 10 10 10 10 10 10 10 10 11 10 10 11
9 8 4 3 1 3 5 1 3 2 2 1 2 4 4 5 5 6 6 5 5 4 4 4 5 6 7 6 7 7 7 7 7 8 8 8 8 8 8 9 9 9 10 10
6 7 2 4 1 1 3 3 3 3 4 5 7 7 7 7 7 7 7 7 7 7 6 5 5 6 6 4 3 4 5 5 6 5 5 5 6 6 7 7 8 9 9 10
2 2 4 3 3 3 2 2 3 4 5 7 8 8 8 8 7 8 8 8 8 9 8 7 6 6 5 4 3 3 4 4 3 4 3 4 5 6 6 7 7 8 8 9
1 2 3 3 3 3 3 4 4 6 7 8 9 9 9 8 8 8 9 9 8 9 9 8 8 6 5 4 3 3 3 2 2 3 3 3 4 5 5 5 6 7 8 8
2 1 3 5 5 5 6 7 8 9 9 9 10 10 9 9 8 8 8 8 8 9 8 8 7 6 4 3 3 3 3 2 1 1 1 2 3 3 4 3 4 6 7 8
3 4 2 3 5 6 8 9 9 11 11 11 11 11 11 10 8 8 8 8 8 8 8 7 6 6 4 3 3 2 2 2 0 1 1 2 2 3 5 6 6 8 9 9
2 3 4 5 6 8 9 11 11 12 12 12 11 11 10 9 8 8 7 7 7 7 6 6 6 5 4 4 3 3 2 2 1 2 2 3 3 5 5 6 10 12 13 13
3 5 6 7 8 10 12 12 13 13 12 11 10 9 9 8 8 7 7 6 5 5 5 5 5 4 3 3 2 2 2 1 2 2 3 4 4 5 6 8 8 8 9 13
6 6 8 10 11 12 12 12 12 12 11 10 9 8 7 7 6 5 4 4 4 3 4 4 3 3 3 2 2 2 3 3 3 4 5 5 6 7 7 8 9 10 10 9
8 11 12 12 12 12 12 11 10 10 9 8 7 6 5 5 4 3 3 3 3 3 4 3 3 3 3 3 3 2 3 2 4 6 6 6 6 7 8 9 10 10 10 11
10 11 11 12 11 10 9 8 7 6 6 5 4 3 3 3 3 3 3 3 3 3 3 3 3 3 3 4 5 5 5 4 4 6 7 7 7 8 9 10 10 11 11 11
10 10 10 10 9 9 7 6 5 5 4 3 3 3 3 3 3 3 4 4 4 4 4 4 4 4 5 5 5 6 7 7 7 8 8 8 9 10 10 11 11 13 12 12
12 11 10 9 7 7 6 5 4 3 3 4 4 4 5 5 5 5 5 5 5 5 4 4 3 5 7 6 6 7 8 9 9 9 9 9 10 10 11 11 12 12 13 13
10 10 9 8 7 6 5 4 4 4 4 4 5 5 6 7 7 6 6 6 5 5 5 6 6 7 7 6 6 9 10 10 10 10 10 10 11 11 11 12 12 12 13 13
8 7 6 6 6 5 4 3 3 3 4 4 5 6 6 7 7 7 8 7 4 4 6 6 6 6 6 7 8 10 10 10 10 11 11 11 11 11 12 12 12 12 12 12
6 5 5 5 4 4 4 4 4 4 4 5 6 7 7 7 7 7 7 6 6 4 6 8 6 6 8 10 10 10 10 11 11 11 11 11 11 11 11 12 12 12 12 12
5 5 5 5 5 5 5 5 5 5 5 6 6 7 7 8 8 8 7 5 6 6 7 7 6 6 9 9 10 10 10 10 10 11 11 11 10 11 11 12 12 12 12 12
6 6 5 5 6 6 6 6 7 6 7 7 6 6 7 8 7 7 7 4 4 6 7 5 4 6 9 8 9 9 9 10 10 10 11 11 10 11 11 11 12 12 12 13
5 5 5 6 6 6 7 7 8 8 8 7 7 7 7 6 7 7 7 7 6 7 8 4 3 6 8 8 8 8 9 9 9 10 10 10 11 11 11 11 11 11 11 11
5 5 5 6 6 6 7 7 8 8 8 8 8 7 7 6 7 6 6 6 7 6 8 7 6 6 7 8 8 8 9 8 8 8 9 10 10 10 10 10 12 11 11 11
6 5 5 6 6 6 7 7 8 8 8 8 8 7 7 7 6 7 8 7 7 7 7 7 7 7 7 7 7 7 7 7 8 8 8 8 9 9 9 11 10 10 10 10
Wind_Direction
264 276 265 253 244 229 234 252 266 275 278 295 305 290 239 210 197 195 192 194 195 195 195 196 196 196 197 197 194 191 191 194 194 194 195 196 196 197 200 205 210 211 218 224
250 250 253 254 250 242 240 250 258 269 277 315 346 344 226 203 198 197 196 196 196 197 197 197 197 196 195 196 192 189 192 194 193 192 192 195 197 198 201 206 213 216 221 228
247 234 242 242 237 237 238 243 257 266 282 337 339 3 2 198 196 199 200 199 198 198 199 199 198 197 196 195 190 190 195 197 194 195 197 199 200 202 205 208 214 220 225 230
246 230 241 238 196 252 252 254 263 269 283 323 360 38 58 48 195 205 207 202 199 199 197 197 194 194 196 192 191 192 195 199 198 198 200 201 203 207 210 214 217 222 228 232
240 239 249 208 184 247 247 236 292 266 251 160 114 148 99 60 54 68 203 206 198 195 191 186 186 187 187 191 192 194 196 198 197 198 201 202 208 214 215 218 223 227 231 235
235 246 249 170 94 276 247 218 55 215 192 198 229 238 89 52 45 54 70 101 140 157 160 162 173 173 176 184 189 195 196 196 195 198 205 209 212 216 217 221 228 234 236 239
238 246 247 62 76 221 239 72 56 69 86 89 56 42 77 64 61 63 68 80 96 108 120 132 144 150 163 176 192 198 188 185 187 193 201 208 211 214 218 224 231 238 243 244
236 241 225 59 119 317 37 56 70 82 86 87 90 91 88 79 73 72 74 76 83 86 85 90 110 130 140 147 167 172 169 174 180 189 205 204 208 216 220 229 233 238 242 250
294 24 57 48 44 55 67 90 91 93 100 109 107 102 95 87 79 76 75 77 81 90 88 83 86 97 105 105 116 135 140 156 164 174 194 210 215 218 222 226 243 253 256 261
271 75 56 56 58 67 78 98 100 105 109 111 109 104 96 89 82 78 76 75 79 84 83 77 74 76 80 85 100 114 119 128 158 178 194 211 236 237 240 243 250 258 263 270
273 44 68 61 58 76 93 102 105 103 103 106 107 100 95 89 81 76 75 75 74 74 76 76 76 74 69 71 86 97 102 120 162 181 199 223 232 256 265 276 282 279 285 290
340 21 17 47 62 92 102 101 101 103 101 100 100 98 94 88 84 81 80 80 79 78 79 76 75 69 60 60 74 92 89 71 34 291 288 276 270 263 223 239 237 238 246 263
344 32 68 85 86 97 100 100 101 100 100 98 92 91 89 86 82 81 80 79 80 80 80 77 71 63 52 46 50 58 60 33 332 312 300 297 298 298 296 260 231 232 234 236
85 100 98 97 101 105 107 106 105 102 98 94 91 87 85 85 82 77 73 74 77 76 73 71 68 60 52 51 41 26 5 36 301 307 311 308 306 301 296 297 298 292 256 233
78 100 111 111 109 107 110 111 108 102 96 90 85 80 76 76 75 73 68 66 65 61 53 47 45 38 32 25 11 343 326 327 332 322 307 304 301 296 294 297 298 300 302 289
100 108 113 113 113 115 114 111 107 104 100 94 86 79 73 70 66 58 48 39 25 23 23 17 12 3 352 338 327 309 300 296 294 304 303 302 303 302 301 300 298 298 301 305
112 115 118 116 113 110 105 104 106 105 97 88 75 62 50 45 35 22 7 6 357 338 329 327 328 326 316 312 308 310 313 301 248 280 296 303 304 302 299 297 296 298 300 306
97 103 106 108 108 105 96 85 74 69 65 60 51 32 8 353 347 347 339 334 321 312 309 306 317 314 304 300 299 305 305 304 302 301 302 301 304 300 297 296 297 299 301 301
94 95 95 94 94 94 90 79 63 48 35 22 15 2 339 330 327 322 317 310 305 301 318 322 326 291 297 303 303 285 291 297 300 300 299 299 292 293 297 299 300 301 302 304
90 88 85 80 76 73 67 53 35 25 16 7 354 340 328 327 325 318 310 299 305 327 328 322 304 299 302 307 306 296 297 299 301 302 301 300 301 301 300 301 301 302 303 304
82 81 78 71 62 54 46 26 11 3 358 346 332 322 318 316 314 313 306 303 320 337 314 290 285 301 310 323 294 295 299 301 302 302 302 302 303 303 303 303 302 302 303 304
50 46 44 38 27 16 7 353 346 340 336 326 321 321 317 312 310 307 301 308 320 359 317 307 315 359 342 315 299 300 302 302 302 303 305 306 306 304 302 303 302 303 304 304
34 28 23 18 8 353 343 340 341 337 329 324 321 320 319 318 314 310 309 329 327 350 322 321 355 358 321 300 298 299 301 303 305 306 305 305 305 304 302 301 301 301 302 304
19 10 4 357 347 336 336 339 335 327 320 312 311 314 310 305 305 309 320 338 340 331 315 339 340 310 291 293 299 303 306 307 308 309 310 310 309 306 304 303 303 303 303 304
352 334 331 331 322 322 324 316 311 309 308 312 314 313 309 313 315 319 320 322 329 311 311 313 268 283 293 307 309 310 309 314 318 316 312 311 310 310 309 310 312 311 310 310
328 320 328 321 317 311 311 314 315 317 316 315 317 321 322 321 317 314 311 313 314 314 310 314 318 306 314 317 318 319 319 320 318 314 316 315 313 314 314 316 315 313 310 309
312 310 306 309 317 324 322 317 315 316 317 318 320 322 321 319 318 322 321 318 318 319 322 325 326 326 328 331 331 330 327 327 326 322 319 317 317 317 319 318 316 313 311 310
Height
1460 1457 1458 1459 1460 1461 1464 1462 1465 1461 1461 1460 1461 1464 1467 1470 1472 1475 1478 1482 1485 1489 1493 1497 1500 1503 1506 1509 1512 1515 1518 1521 1523 1525 1528 1530 1532 1534 1535 1536 1537 1538 1539 1540
1464 1459 1460 1461 1458 1457 1459 1459 1459 1459 1460 1459 1464 1466 1468 1469 1471 1473 1476 1479 1482 1485 1489 1492 1496 1499 1502 1505 1508 1511 1513 1516 1519 1521 1523 1526 1528 1529 1531 1532 1533 1534 1535 1536
1465 1459 1462 1464 1456 1455 1456 1454 1456 1459 1458 1460 1464 1467 1469 1470 1471 1472 1474 1476 1479 1481 1484 1487 1491 1494 1497 1500 1503 1506 1509 1512 1514 1517 1519 1521 1523 1525 1526 1528 1529 1530 1530 1531
1462 1466 1476 1457 1450 1450 1452 1452 1453 1456 1459 1462 1465 1468 1470 1471 1471 1472 1473 1475 1477 1479 1482 1484 1487 1490 1493 1496 1499 1501 1504 1506 1509 1512 1514 1516 1518 1520 1521 1523 1524 1524 1525 1526
1463 1466 1461 1453 1452 1453 1454 1456 1457 1458 1460 1463 1465 1466 1469 1471 1472 1472 1473 1474 1475 1477 1479 1481 1484 1486 1489 1492 1495 1497 1499 1502 1504 1507 1509 1511 1513 1514 1516 1517 1518 1519 1519 1520
1462 1467 1468 1455 1452 1455 1456 1460 1459 1460 1461 1463 1463 1461 1468 1472 1472 1472 1472 1473 1474 1475 1477 1478 1481 1483 1486 1489 1491 1493 1495 1497 1499 1501 1504 1506 1507 1509 1510 1511 1512 1513 1513 1514
1461 1463 1453 1453 1454 1455 1462 1464 1462 1462 1463 1464 1466 1467 1472 1473 1473 1473 1472 1473 1473 1474 1476 1477 1479 1480 1483 1486 1488 1490 1492 1493 1495 1497 1499 1501 1502 1503 1505 1506 1507 1507 1507 1508
1459 1463 1461 1456 1455 1457 1462 1463 1464 1465 1466 1467 1469 1471 1472 1473 1474 1473 1473 1473 1473 1474 1475 1476 1477 1479 1481 1483 1485 1487 1488 1490 1492 1494 1495 1496 1498 1499 1500 1500 1501 1501 1501 1501
1456 1460 1461 1460 1460 1463 1463 1464 1466 1467 1468 1469 1471 1473 1474 1474 1475 1475 1475 1475 1475 1475 1476 1477 1477 1478 1480 1481 1483 1485 1486 1488 1489 1491 1492 1493 1494 1494 1494 1495 1496 1496 1496 1496
1457 1457 1460 1462 1463 1464 1464 1466 1467 1469 1470 1471 1472 1474 1475 1476 1476 1477 1477 1477 1477 1477 1477 1477 1478 1479 1481 1482 1483 1484 1485 1486 1487 1488 1488 1489 1490 1491 1491 1491 1491 1491 1491 1490
1458 1460 1462 1463 1465 1466 1467 1468 1469 1471 1472 1473 1475 1476 1477 1478 1478 1478 1478 1479 1479 1478 1479 1480 1480 1481 1481 1482 1482 1483 1483 1484 1485 1485 1486 1486 1486 1486 1486 1486 1486 1486 1485 1484
1462 1464 1465 1467 1468 1468 1469 1471 1472 1473 1475 1477 1478 1479 1480 1480 1481 1481 1481 1481 1480 1481 1481 1481 1481 1481 1481 1481 1481 1482 1482 1482 1483 1484 1484 1483 1483 1482 1481 1481 1480 1479 1478 1477
1468 1467 1468 1469 1470 1471 1472 1473 1475 1477 1479 1480 1482 1482 1483 1483 1484 1484 1484 1483 1483 1483 1482 1482 1481 1481 1481 1482 1481 1481 1481 1481 1482 1482 1481 1480 1479 1479 1478 1477 1476 1474 1472 1470
1469 1469 1470 1472 1473 1474 1475 1477 1479 1481 1483 1484 1485 1486 1486 1486 1486 1486 1486 1486 1485 1485 1484 1483 1483 1483 1483 1482 1481 1481 1480 1480 1480 1479 1478 1477 1476 1476 1475 1474 1472 1470 1468 1465
1471 1471 1472 1474 1476 1477 1479 1481 1482 1484 1485 1487 1488 1489 1489 1489 1489 1488 1488 1487 1487 1486 1485 1485 1484 1484 1483 1482 1481 1480 1480 1479 1478 1477 1476 1475 1473 1472 1471 1469 1467 1465 1463 1461
1473 1474 1475 1477 1479 1481 1483 1484 1485 1487 1488 1489 1490 1490 1491 1490 1490 1489 1489 1488 1488 1487 1486 1485 1484 1483 1482 1481 1480 1479 1478 1476 1475 1475 1473 1472 1470 1469 1467 1465 1463 1460 1458 1455
1476 1477 1479 1480 1482 1484 1486 1487 1488 1489 1490 1490 1491 1491 1491 1491 1491 1490 1489 1488 1487 1486 1485 1484 1483 1482 1481 1480 1479 1478 1476 1475 1473 1472 1470 1468 1467 1465 1463 1460 1458 1455 1452 1449
1480 1481 1482 1484 1485 1486 1488 1489 1490 1490 1490 1491 1491 1491 1491 1491 1490 1489 1488 1487 1486 1485 1484 1483 1482 1480 1479 1478 1477 1476 1474 1472 1470 1469 1467 1465 1463 1460 1458 1455 1452 1449 1446 1443
1483 1485 1486 1487 1488 1489 1490 1490 1491 1491 1491 1491 1490 1490 1491 1490 1490 1488 1487 1486 1484 1483 1482 1481 1479 1478 1477 1476 1474 1472 1471 1469 1467 1464 1462 1460 1458 1455 1452 1449 1446 1443 1440 1437
1487 1488 1489 1489 1490 1490 1491 1491 1491 1491 1491 1490 1490 1489 1489 1489 1488 1486 1485 1484 1482 1481 1480 1478 1476 1475 1474 1472 1470 1469 1467 1464 1462 1460 1457 1455 1452 1450 1447 1444 1441 1437 1434 1431
1490 1490 1491 1491 1491 1491 1492 1492 1491 1491 1490 1490 1489 1488 1487 1486 1485 1484 1482 1481 1479 1478 1476 1474 1473 1472 1470 1468 1466 1465 1462 1460 1457 1455 1452 1450 1447 1444 1441 1438 1435 1432 1428 1424
1492 1492 1492 1492 1492 1492 1492 1491 1490 1490 1489 1488 1487 1486 1485 1483 1482 1481 1479 1478 1477 1474 1473 1472 1470 1468 1465 1463 1462 1460 1457 1455 1453 1450 1447 1444 1441 1438 1435 1432 1429 1425 1422 1418
1492 1492 1492 1492 1491 1491 1490 1490 1489 1488 1487 1486 1484 1483 1482 1480 1479 1478 1476 1475 1473 1471 1469 1468 1465 1463 1460 1458 1457 1455 1453 1450 1447 1445 1442 1439 1435 1432 1429 1426 1422 1419 1415 1412
1493 1492 1492 1491 1491 1490 1489 1488 1487 1486 1485 1483 1482 1480 1479 1477 1475 1474 1473 1471 1469 1467 1465 1463 1460 1458 1455 1454 1452 1450 1448 1445 1442 1439 1436 1433 1430 1427 1423 1420 1416 1413 1409 1406
1493 1492 1491 1490 1489 1488 1487 1486 1485 1483 1482 1480 1478 1477 1475 1474 1472 1470 1469 1467 1464 1462 1461 1458 1456 1453 1452 1450 1448 1445 1443 1440 1437 1434 1431 1428 1425 1421 1418 1415 1411 1407 1404 1400
1492 1491 1490 1488 1487 1486 1485 1483 1482 1480 1478 1476 1475 1473 1472 1470 1468 1466 1464 1463 1461 1458 1456 1454 1452 1450 1448 1445 1443 1440 1438 1435 1432 1429 1426 1423 1420 1416 1413 1409 1406 1402 1399 1395
1490 1489 1487 1486 1485 1483 1482 1480 1478 1477 1475 1473 1471 1470 1468 1466 1465 1463 1461 1459 1457 1455 1453 1451 1448 1446 1444 1442 1439 1436 1434 1431 1428 1425 1422 1419 1415 1412 1409 1405 1401 1398 1394 1391